Hourly Data Report for June 11, 2021

MANIWAKI AIRPORT
QUEBEC
Current Station Operator: ECCC - MSC

46°16'29.000" N
75°59'31.000" W
199.70 m
7034482
71721
WMJ

Download Data

Hourly Data (June 2021)
Hourly Data Report for June 11, 2021
TIME
LST
Temp Definition
°C
Dew Point Definition
°C
Rel Hum Definition
%
Precip. Amount Definition
mm

Wind Dir Definition
10's deg

Wind Spd Definition
km/h
Visibility Definition
km
Stn Press Definition
kPa
Hmdx Definition


Wind Chill Definition


Weather Definition


00:00 13.2 11.1 87 0.0   0   99.47     LegendNANA
01:00 13.0 10.3 84 0.0 19 3   99.42     LegendNANA
02:00 12.6 10.3 86 0.0 0 1   99.37     LegendNANA
03:00 12.7 10.5 86 0.0 0 1   99.34     LegendNANA
04:00 13.1 10.8 86 0.0 21 4   99.29     LegendNANA
05:00 12.9 10.8 87 0.0 3 4   99.32     LegendNANA
06:00 14.0 11.8 86 0.0 3 3   99.31     LegendNANA
07:00 15.5 11.5 77 0.0 4 3   99.29     LegendNANA
08:00 16.5 11.1 71 0.0 3 6   99.31     LegendNANA
09:00 17.7 9.4 58 0.0 36 6   99.27     LegendNANA
10:00 18.7 8.1 50 0.0 32 6   99.21     LegendNANA
11:00 19.8 8.0 47 0.0 1 7   99.16     LegendNANA
12:00 20.9 6.1 38 0.0 34 8   99.11     LegendNANA
13:00 22.2 7.9 40 0.0 32 7   99.07     LegendNANA
14:00 23.7 8.4 38 0.0 34 11   98.99     LegendNANA
15:00 23.6 7.9 37 0.0 36 12   98.92     LegendNANA
16:00 23.8 6.0 32 0.0 6 7   98.85     LegendNANA
17:00 24.1 7.4 34 0.0 36 9   98.82     LegendNANA
18:00 22.0 7.5 39 0.0 1 6   98.81     LegendNANA
19:00 20.6 9.6 50 0.0 10 3   98.77     LegendNANA
20:00 15.9 10.8 72 0.0 0 1   98.78     LegendNANA
21:00 13.4 10.0 80 0.0   0   98.84     LegendNANA
22:00 12.9 10.6 86 0.0   0   98.90     LegendNANA
23:00 14.7 11.0 78 0.0 30 2   98.91     LegendNANA

Notes on Data Quality.

Legend

  • E = Estimated
  • M = Missing
  • NA = Not Available*
  • [empty] = Indicates an unobserved value
Date modified: